Tracking 19219 objects as of 20-Jul-2018
HD Live streaming from Space Station
objects crossing your sky now

INSAT 2B

Track INSAT 2B now!
INSAT 2B is classified as:


NORAD ID: 22724
Int'l Code: 1993-048B
Perigee: 35,816.7 km
Apogee: 35,933.6 km
Inclination: 13.3 °
Period: 1,440.3 minutes
Semi major axis: 42246 km
RCS: 19.9526 m2 (large)
Launch date: July 22, 1993
Source: India (IND)
Launch site: FRENCH GUIANA (FRGUI)

Second of Spain's communications satellites; 15 multi-frequency transponders
aabbcc
Your satellite tracking list
Your tracking list is empty




NASA's NSSDC Master Catalog

Two Line Element Set (TLE):
1 22724U 93048B   18200.37716131 -.00000365  00000-0  00000+0 0  9995
2 22724  13.2928  25.4988 0013842 150.9810  33.0892  0.99982074 91690
Source of the keplerian elements: AFSPC